DNO632 LGAV-LGKF

Flight info

Callsign DNO632
Flight time 0h 38m
Altitude 24000
Route KOR1E KOR N604 ARA ARA2P
Aircraft A320/M-SDE3FGHIRWY/LB1

Departure

Time 2026-04-15 12:44
Airport Athens Eleftherios Venizelos International Airport (LGAV)

Arrival

Time 2026-04-15 13:22
Airport Kefallinia Airport (LGKF)
Time Latitude Longitude Altitude Speed Heading
2026-04-15 11:58 37.93606 23.94837 302 ft 0 kts 306°
2026-04-15 12:33 37.93593 23.94859 302 ft 4 kts 306°
2026-04-15 12:33 37.93578 23.94887 302 ft 4 kts 300°
2026-04-15 12:33 37.93568 23.94917 303 ft 4 kts 264°
2026-04-15 12:33 37.93576 23.94937 301 ft 3 kts 217°
2026-04-15 12:34 37.93589 23.94949 302 ft 0 kts 217°
2026-04-15 12:36 37.93572 23.94933 301 ft 7 kts 217°
2026-04-15 12:36 37.93528 23.94891 301 ft 8 kts 217°
2026-04-15 12:36 37.93480 23.94846 301 ft 11 kts 217°
2026-04-15 12:36 37.93404 23.94773 303 ft 16 kts 218°
2026-04-15 12:37 37.93298 23.94673 301 ft 21 kts 218°
2026-04-15 12:37 37.93188 23.94567 303 ft 17 kts 217°
2026-04-15 12:37 37.93176 23.94468 302 ft 12 kts 304°
2026-04-15 12:37 37.93229 23.94378 301 ft 16 kts 307°
2026-04-15 12:38 37.93278 23.94238 301 ft 17 kts 249°
2026-04-15 12:38 37.93203 23.94157 302 ft 10 kts 216°
2026-04-15 12:38 37.93150 23.94108 301 ft 9 kts 216°
2026-04-15 12:38 37.93123 23.94082 303 ft 0 kts 217°
2026-04-15 12:39 37.93114 23.94074 302 ft 2 kts 217°
2026-04-15 12:39 37.93093 23.94045 301 ft 9 kts 242°
2026-04-15 12:39 37.93120 23.93959 302 ft 16 kts 305°
2026-04-15 12:39 37.93211 23.93807 301 ft 24 kts 307°
2026-04-15 12:40 37.93311 23.93639 301 ft 23 kts 306°
2026-04-15 12:40 37.93404 23.93484 300 ft 18 kts 307°
2026-04-15 12:40 37.93412 23.93369 302 ft 14 kts 219°
2026-04-15 12:40 37.93336 23.93299 301 ft 13 kts 216°
2026-04-15 12:41 37.93268 23.93234 300 ft 12 kts 217°
2026-04-15 12:41 37.93199 23.93168 301 ft 14 kts 217°
2026-04-15 12:41 37.93107 23.93080 300 ft 19 kts 217°
2026-04-15 12:41 37.92992 23.92971 301 ft 20 kts 217°
2026-04-15 12:42 37.92886 23.92868 300 ft 20 kts 217°
2026-04-15 12:42 37.92771 23.92760 301 ft 20 kts 217°
2026-04-15 12:42 37.92665 23.92661 301 ft 18 kts 217°
2026-04-15 12:42 37.92604 23.92553 300 ft 15 kts 290°
2026-04-15 12:43 37.92689 23.92520 300 ft 15 kts
2026-04-15 12:43 37.92792 23.92510 299 ft 16 kts 22°
2026-04-15 12:43 37.92988 23.92689 296 ft 68 kts 37°
2026-04-15 12:43 37.93547 23.93220 293 ft 130 kts 37°
2026-04-15 12:44 37.94356 23.93999 631 ft 149 kts 38°
2026-04-15 12:44 37.95189 23.94775 1372 ft 148 kts 35°
2026-04-15 12:44 37.96019 23.95540 2163 ft 150 kts 35°
2026-04-15 12:44 37.96874 23.96316 2875 ft 149 kts 36°
2026-04-15 12:45 37.97707 23.97067 3426 ft 149 kts 38°
2026-04-15 12:45 37.98576 23.97857 3795 ft 163 kts 38°
2026-04-15 12:45 37.99556 23.98755 4032 ft 185 kts 40°
2026-04-15 12:45 38.00662 23.99776 4291 ft 208 kts 39°
2026-04-15 12:46 38.02052 24.00589 4534 ft 238 kts
2026-04-15 12:46 38.03758 24.00211 4912 ft 268 kts 333°
2026-04-15 12:46 38.05094 23.98490 5505 ft 284 kts 295°
2026-04-15 12:46 38.05555 23.96062 6324 ft 286 kts 270°
2026-04-15 12:47 38.05460 23.93544 7246 ft 286 kts 260°
2026-04-15 12:47 38.05163 23.91048 8154 ft 287 kts 258°
2026-04-15 12:47 38.04839 23.88579 9058 ft 288 kts 258°
2026-04-15 12:47 38.04543 23.86058 9972 ft 291 kts 259°
2026-04-15 12:48 38.04289 23.83475 10560 ft 304 kts 261°
2026-04-15 12:48 38.04058 23.80703 10808 ft 328 kts 262°
2026-04-15 12:48 38.03849 23.77720 11065 ft 348 kts 263°
2026-04-15 12:48 38.03656 23.74624 11708 ft 354 kts 262°
2026-04-15 12:49 38.03475 23.71507 12531 ft 354 kts 262°
2026-04-15 12:49 38.03296 23.68391 13392 ft 354 kts 262°
2026-04-15 12:49 38.03115 23.65287 14203 ft 353 kts 262°
2026-04-15 12:49 38.02925 23.62170 14840 ft 356 kts 262°
2026-04-15 12:50 38.02726 23.59020 15412 ft 361 kts 262°
2026-04-15 12:50 38.02523 23.55871 15974 ft 365 kts 263°
2026-04-15 12:50 38.02314 23.52644 16535 ft 370 kts 263°
2026-04-15 12:50 38.02103 23.49369 17107 ft 375 kts 263°
2026-04-15 12:51 38.01890 23.46057 17684 ft 379 kts 264°
2026-04-15 12:51 38.01675 23.42703 18269 ft 384 kts 264°
2026-04-15 12:51 38.01457 23.39310 18769 ft 389 kts 264°
2026-04-15 12:51 38.01234 23.35879 19301 ft 392 kts 264°
2026-04-15 12:52 38.01007 23.32429 19834 ft 394 kts 264°
2026-04-15 12:52 38.00777 23.28954 20361 ft 397 kts 264°
2026-04-15 12:52 38.00547 23.25460 20857 ft 399 kts 263°
2026-04-15 12:52 38.00313 23.21942 21350 ft 402 kts 263°
2026-04-15 12:53 38.00079 23.18450 21824 ft 404 kts 263°
2026-04-15 12:53 37.99839 23.14887 22317 ft 407 kts 263°
2026-04-15 12:53 37.99595 23.11309 22786 ft 409 kts 263°
2026-04-15 12:53 37.99349 23.07705 23265 ft 411 kts 262°
2026-04-15 12:54 37.99101 23.04085 23702 ft 413 kts 262°
2026-04-15 12:54 37.98853 23.00445 24011 ft 415 kts 262°
2026-04-15 12:54 37.98602 22.96795 24094 ft 419 kts 262°
2026-04-15 12:54 37.98346 22.93062 24110 ft 429 kts 262°
2026-04-15 12:55 37.98091 22.89331 24109 ft 432 kts 262°
2026-04-15 12:55 37.97829 22.85533 24109 ft 433 kts 262°
2026-04-15 12:55 37.97566 22.81725 24106 ft 433 kts 262°
2026-04-15 12:55 37.97300 22.77928 24111 ft 433 kts 262°
2026-04-15 12:56 37.97033 22.74127 24108 ft 433 kts 262°
2026-04-15 12:56 37.96767 22.70330 24106 ft 433 kts 263°
2026-04-15 12:56 37.96719 22.66509 24105 ft 436 kts 271°
2026-04-15 12:56 37.97143 22.62689 24108 ft 440 kts 278°
2026-04-15 12:57 37.97753 22.58937 24107 ft 440 kts 278°
2026-04-15 12:57 37.98369 22.55135 24105 ft 440 kts 278°
2026-04-15 12:57 37.98983 22.51335 24100 ft 439 kts 278°
2026-04-15 12:57 37.99595 22.47543 24101 ft 440 kts 278°
2026-04-15 12:58 38.00204 22.43748 24104 ft 440 kts 278°
2026-04-15 12:58 38.00813 22.39934 24097 ft 441 kts 278°
2026-04-15 12:58 38.01420 22.36121 24091 ft 442 kts 278°
2026-04-15 12:58 38.02030 22.32304 24074 ft 442 kts 278°
2026-04-15 12:59 38.03243 22.24720 24072 ft 442 kts 278°
2026-04-15 12:59 38.03850 22.20901 24067 ft 442 kts 278°
2026-04-15 12:59 38.04453 22.17080 24062 ft 443 kts 278°
2026-04-15 13:00 38.05056 22.13245 24067 ft 442 kts 278°
2026-04-15 13:00 38.05657 22.09418 24069 ft 443 kts 277°
2026-04-15 13:00 38.06259 22.05578 24060 ft 444 kts 277°
2026-04-15 13:00 38.06859 22.01743 24058 ft 444 kts 277°
2026-04-15 13:01 38.07462 21.97899 24055 ft 444 kts 277°
2026-04-15 13:01 38.08066 21.94025 23842 ft 449 kts 277°
2026-04-15 13:01 38.08661 21.90193 23595 ft 448 kts 277°
2026-04-15 13:01 38.09261 21.86316 23179 ft 446 kts 278°
2026-04-15 13:02 38.09858 21.82467 22641 ft 443 kts 278°
2026-04-15 13:02 38.10451 21.78642 22119 ft 441 kts 278°
2026-04-15 13:02 38.11039 21.74834 21599 ft 439 kts 278°
2026-04-15 13:02 38.11621 21.71035 21092 ft 436 kts 278°
2026-04-15 13:03 38.12196 21.67266 20592 ft 433 kts 278°
2026-04-15 13:03 38.12767 21.63524 20101 ft 430 kts 278°
2026-04-15 13:03 38.13336 21.59802 19616 ft 427 kts 278°
2026-04-15 13:03 38.13898 21.56112 19148 ft 424 kts 278°
2026-04-15 13:04 38.14449 21.52487 18679 ft 422 kts 278°
2026-04-15 13:04 38.15000 21.48843 18212 ft 419 kts 279°
2026-04-15 13:04 38.15540 21.45222 17673 ft 415 kts 277°
2026-04-15 13:04 38.15797 21.41597 17148 ft 410 kts 268°
2026-04-15 13:05 38.15680 21.38000 16636 ft 406 kts 264°
2026-04-15 13:05 38.15511 21.34438 16126 ft 403 kts 264°
2026-04-15 13:05 38.15345 21.30897 15636 ft 400 kts 264°
2026-04-15 13:05 38.15183 21.27434 15149 ft 397 kts 264°
2026-04-15 13:06 38.15019 21.23948 14659 ft 394 kts 264°
2026-04-15 13:06 38.14852 21.20491 14184 ft 391 kts 264°
2026-04-15 13:06 38.14684 21.17056 13696 ft 388 kts 263°
2026-04-15 13:06 38.14518 21.13648 13239 ft 385 kts 264°
2026-04-15 13:07 38.14351 21.10255 12966 ft 385 kts 264°
2026-04-15 13:07 38.14183 21.06862 12705 ft 385 kts 263°
2026-04-15 13:07 38.14016 21.03472 12446 ft 384 kts 263°
2026-04-15 13:07 38.13850 21.00097 12190 ft 383 kts 264°
2026-04-15 13:08 38.13690 20.96768 11941 ft 382 kts 263°
2026-04-15 13:08 38.13525 20.93407 11688 ft 380 kts 263°
2026-04-15 13:08 38.13363 20.90129 11517 ft 363 kts 263°
2026-04-15 13:08 38.13208 20.86998 11351 ft 348 kts 263°
2026-04-15 13:09 38.13057 20.83982 11120 ft 337 kts 263°
2026-04-15 13:09 38.12912 20.81070 10921 ft 325 kts 262°
2026-04-15 13:09 38.12770 20.78254 10737 ft 314 kts 263°
2026-04-15 13:09 38.12626 20.75523 10543 ft 306 kts 263°
2026-04-15 13:10 38.12488 20.72899 10356 ft 297 kts 263°
2026-04-15 13:10 38.12353 20.70322 10165 ft 288 kts 262°
2026-04-15 13:10 38.12222 20.67817 9965 ft 283 kts 262°
2026-04-15 13:10 38.12089 20.65335 9670 ft 280 kts 262°
2026-04-15 13:11 38.11956 20.62875 9349 ft 278 kts 262°
2026-04-15 13:11 38.11826 20.60439 9158 ft 272 kts 262°
2026-04-15 13:11 38.11702 20.58090 9036 ft 262 kts 262°
2026-04-15 13:11 38.11445 20.55888 9002 ft 243 kts 245°
2026-04-15 13:12 38.10609 20.54101 8993 ft 232 kts 222°
2026-04-15 13:12 38.09363 20.52962 8856 ft 218 kts 200°
2026-04-15 13:12 38.07942 20.52541 8724 ft 205 kts 180°
2026-04-15 13:12 38.06563 20.52778 8522 ft 199 kts 161°
2026-04-15 13:13 38.05277 20.53404 8251 ft 197 kts 160°
2026-04-15 13:13 38.04001 20.54030 7963 ft 196 kts 160°
2026-04-15 13:13 38.02730 20.54651 7663 ft 195 kts 160°
2026-04-15 13:13 38.01466 20.55267 7358 ft 194 kts 160°
2026-04-15 13:14 38.00207 20.55880 7052 ft 193 kts 160°
2026-04-15 13:14 37.98954 20.56489 6752 ft 193 kts 160°
2026-04-15 13:14 37.97722 20.57087 6466 ft 192 kts 160°
2026-04-15 13:14 37.96481 20.57689 6165 ft 189 kts 160°
2026-04-15 13:15 37.95278 20.58273 5922 ft 182 kts 160°
2026-04-15 13:15 37.94109 20.58841 5570 ft 179 kts 160°
2026-04-15 13:15 37.92953 20.59402 5215 ft 177 kts 160°
2026-04-15 13:15 37.91873 20.60134 4870 ft 178 kts 141°
2026-04-15 13:16 37.91186 20.61439 4515 ft 183 kts 114°
2026-04-15 13:16 37.91104 20.63070 4225 ft 190 kts 84°
2026-04-15 13:16 37.91690 20.64549 3978 ft 196 kts 53°
2026-04-15 13:16 37.92855 20.65460 3708 ft 201 kts 17°
2026-04-15 13:17 37.94244 20.65433 3420 ft 203 kts 341°
2026-04-15 13:17 37.95443 20.64546 3143 ft 198 kts 322°
2026-04-15 13:17 37.96550 20.63534 3011 ft 196 kts 322°
2026-04-15 13:17 37.97662 20.62535 2874 ft 196 kts 323°
2026-04-15 13:18 37.98771 20.61553 2758 ft 191 kts 323°
2026-04-15 13:18 37.99835 20.60612 2626 ft 181 kts 323°
2026-04-15 13:18 38.00838 20.59728 2482 ft 169 kts 324°
2026-04-15 13:18 38.01763 20.58915 2223 ft 161 kts 323°
2026-04-15 13:19 38.02669 20.58118 2034 ft 155 kts 323°
2026-04-15 13:19 38.03564 20.57332 1956 ft 158 kts 323°
2026-04-15 13:19 38.04461 20.56541 1708 ft 155 kts 324°
2026-04-15 13:19 38.05344 20.55771 1472 ft 154 kts 324°
2026-04-15 13:20 38.06198 20.54979 1307 ft 153 kts 323°
2026-04-15 13:20 38.07055 20.54197 1205 ft 150 kts 324°
2026-04-15 13:20 38.07940 20.53434 1030 ft 155 kts 325°
2026-04-15 13:20 38.08811 20.52703 813 ft 149 kts 326°
2026-04-15 13:21 38.09658 20.51990 538 ft 143 kts 326°
2026-04-15 13:21 38.10484 20.51316 297 ft 140 kts 326°
2026-04-15 13:21 38.11294 20.50644 101 ft 139 kts 325°
2026-04-15 13:21 38.12057 20.50001 61 ft 115 kts 326°
2026-04-15 13:22 38.12581 20.49558 51 ft 66 kts 326°
2026-04-15 13:22 38.12815 20.49361 43 ft 23 kts 326°
2026-04-15 13:22 38.12901 20.49309 40 ft 5 kts 266°
2026-04-15 13:22 38.12889 20.49310 38 ft 4 kts 163°
2026-04-15 13:23 38.12792 20.49383 43 ft 27 kts 146°
2026-04-15 13:23 38.12611 20.49535 50 ft 32 kts 148°
2026-04-15 13:23 38.12432 20.49686 57 ft 30 kts 146°
2026-04-15 13:23 38.12258 20.49833 59 ft 30 kts 146°
2026-04-15 13:24 38.12088 20.49976 66 ft 29 kts 146°
2026-04-15 13:24 38.11931 20.50109 68 ft 18 kts 146°
2026-04-15 13:24 38.11896 20.50244 64 ft 17 kts 78°
2026-04-15 13:24 38.11847 20.50341 68 ft 13 kts 145°
2026-04-15 13:25 38.11832 20.50402 66 ft 7 kts 61°
2026-04-15 13:25 38.11855 20.50443 62 ft 2 kts 56°
2026-04-15 13:25 38.11855 20.50445 68 ft 0 kts 56°